Regional Weather Roundup
Issued by NWS Sioux Falls, SD

Home | Current Version | Previous Version | Text Only | Print | Product List | Glossary Off
Versions: 1 2 3 4 5 6 7 8 9 10 11 12 13 14 15 16 17 18 19 20 21 22 23 24 25 26 27 28 29 30 31 32 33 34 35 36 37 38 39 40 41 42 43 44 45 46 47 48 49 50

000
ASUS43 KFSD 290402
RWRFSD

WEATHER ROUNDUP FOR SE SOUTH DAKOTA/SW MINNESOTA/NW IOWA
NATIONAL WEATHER SERVICE SIOUX FALLS SD
1100 PM CDT SAT MAY 28 2016

NOTE: "FAIR" INDICATES FEW OR NO CLOUDS BELOW 12,000 FEET WITH NO
SIGNIFICANT WEATHER AND OR OBSTRUCTIONS TO VISIBILITY.


SDZ038>040-050-052>070-290500-
SOUTHEAST SOUTH DAKOTA

CITY           SKY/WX    TMP DP  RH WIND       PRES   REMARKS
BROOKINGS      PTCLDY    59  58  96 W6        29.91
CHAMBERLAIN    NOT AVBL
HURON          CLEAR     57  56  96 S3        29.91R
MADISON        MOCLDY    59  59 100 W9        29.93R
MITCHELL       CLEAR     61  59  93 SW5       29.94R
SIOUX FALLS    CLOUDY    60  57  89 W7        29.93R
WINNER         MOCLDY    61  56  83 S6        29.98R
YANKTON        PTCLDY    59  55  88 SW6       29.95R
$$

MNZ071-072-080-081-089-090-097-098-290500-
SOUTHWEST MINNESOTA

CITY           SKY/WX    TMP DP  RH WIND       PRES   REMARKS
FAIRMONT       CLOUDY    63  54  72 NW8       29.85R
JACKSON        CLOUDY    61  57  88 NW6       29.88R
LUVERNE        CLOUDY    59  55  88 NW5       29.92R
MARSHALL       CLOUDY    61  59  93 W8        29.88R
MONTEVIDEO     MOCLDY    61  61 100 CALM      29.88R
PIPESTONE      PTCLDY    61  57  88 CALM      29.91R
REDWOOD FALLS  CLOUDY    62  59  90 W6        29.85R
TRACY          CLOUDY    61  58  92 W3        29.89R
WINDOM         MOCLDY    61  57  88 CALM      29.88R
WORTHINGTON    CLOUDY    60  58  92 W7        29.91R
$$

IAZ001>003-012>014-020>022-031-032-NEZ013-014-SDZ071-290500-
NORTHWEST IOWA

CITY           SKY/WX    TMP DP  RH WIND       PRES   REMARKS
ESTHERVILLE    LGT RAIN  61  60  97 NW8       29.87R
SIOUX CITY     MOCLDY    62  57  83 W8        29.94R
SPENCER        MOCLDY    61  59  93 NW9       29.89R
STORM LAKE     MOCLDY    63  61  94 NW9       29.91R
$$

ABBREVIATIONS USED IN REMARKS
   TC - TEMPERATURE IN CELSIUS
  WCI - WIND CHILL INDEX
   HX - HEAT INDEX
  VSB - VISIBILITY





USA.gov is the U.S. government's official web portal to all federal, state and local government web resources and services.